Theta_e
301 300 300 303 303 305 306 307 307 308 308 308 308 309 310 311 311 316 320 317 318 319 317 316 318 319 320 321 324 327 327 328 330 330 343 340 342 345 344 351 354 351 352 349 343
300 300 300 300 302 303 304 305 306 307 308 308 308 309 310 310 314 318 318 320 321 318 316 316 320 320 320 320 323 324 325 326 328 329 336 341 342 345 349 353 355 353 349 346 342
298 299 299 300 300 302 302 303 305 306 307 308 308 309 310 311 321 323 323 320 320 316 314 317 320 321 320 321 321 322 322 324 326 327 329 332 343 341 346 351 352 354 352 348 346
298 299 299 300 301 301 302 302 303 305 306 308 308 309 310 319 331 327 321 320 315 313 314 318 320 320 320 320 322 321 322 323 324 325 327 328 345 341 342 349 349 350 349 348 346
298 298 299 300 301 301 302 302 303 304 306 308 308 309 315 327 325 323 320 316 314 317 318 321 320 320 321 322 323 322 322 323 324 324 325 327 347 354 352 348 347 348 347 346 345
298 298 299 300 301 301 302 303 303 304 307 308 309 309 321 323 326 326 325 316 317 318 321 322 321 322 322 323 323 323 323 323 323 323 324 328 352 352 351 347 347 347 346 345 345
298 298 299 300 301 302 302 303 304 305 308 309 309 312 322 323 323 326 325 321 318 319 323 323 322 323 323 324 324 323 322 323 323 323 323 333 349 346 349 346 347 346 346 345 344
297 298 299 300 301 302 303 304 305 309 309 309 309 319 323 322 322 324 323 321 320 321 322 321 322 324 324 325 325 323 325 323 325 326 325 333 343 350 348 347 348 346 345 344 341
297 298 299 300 301 302 304 305 309 310 309 309 313 322 322 321 321 323 322 321 321 320 321 322 322 323 324 325 325 324 327 326 330 329 325 326 342 349 347 348 348 346 344 342 338
297 298 299 300 301 303 306 307 314 313 315 317 318 323 326 324 321 323 323 321 321 321 322 322 322 322 323 323 325 324 324 327 332 331 327 333 336 349 347 347 347 346 343 340 336
297 298 299 301 302 303 306 318 324 327 322 323 322 323 323 323 322 324 323 322 323 323 322 323 321 322 323 324 323 324 326 325 327 336 335 334 346 350 347 347 347 346 344 341 336
297 297 299 301 303 307 310 323 317 318 320 321 326 323 324 324 325 325 324 323 323 324 323 324 322 323 324 324 324 324 325 327 333 336 336 336 346 350 347 347 347 346 345 341 334
298 298 298 302 304 316 319 315 317 318 321 321 322 322 322 323 324 324 325 324 324 324 325 324 325 324 324 324 324 324 325 327 333 337 336 335 339 352 344 346 345 345 344 341 334
298 298 299 301 311 313 315 317 318 319 323 323 323 322 323 323 323 324 325 324 324 325 325 325 324 324 323 323 324 324 324 326 329 332 333 332 332 357 351 349 346 346 345 341 335
298 299 299 305 309 315 315 315 315 320 328 325 324 323 323 324 324 324 324 325 325 325 325 324 324 323 324 324 324 323 325 326 332 336 334 335 334 334 340 345 346 345 344 341 336
299 300 303 313 313 316 316 317 317 323 325 324 324 323 322 322 324 325 324 326 325 325 325 323 325 324 325 324 324 324 326 327 329 331 333 332 337 336 349 342 346 345 344 342 336
299 302 308 310 315 315 314 318 321 322 324 323 324 325 322 322 323 324 325 326 325 325 325 324 323 326 324 324 325 325 329 329 332 333 334 333 337 337 345 342 338 340 343 341 337
300 306 315 314 315 316 316 319 321 322 324 324 325 326 325 323 323 322 326 325 324 324 324 324 323 326 325 326 326 326 330 332 335 333 333 332 332 345 338 335 331 339 342 340 338
303 311 317 321 322 320 318 318 320 321 322 324 325 324 326 325 324 323 325 326 325 324 328 326 325 326 325 326 326 326 329 329 330 329 333 336 335 334 332 331 329 338 343 341 338
307 316 320 322 323 323 318 317 317 318 319 322 324 325 326 327 325 325 325 325 325 325 326 328 330 327 325 325 325 327 328 329 328 333 332 328 332 334 332 334 333 331 344 341 337
310 319 322 322 325 325 321 318 317 317 317 319 323 325 326 326 328 326 325 326 325 325 325 326 333 330 327 325 325 326 327 329 330 331 331 334 334 334 331 332 334 334 334 339 336
312 316 321 321 321 324 324 323 319 319 318 319 320 323 325 327 330 331 332 327 326 325 326 326 330 334 331 327 326 326 326 329 329 333 330 336 333 330 331 328 327 328 333 336 335
312 315 317 321 322 322 324 328 328 327 319 319 319 322 323 324 330 329 331 329 326 326 328 332 333 332 335 333 329 326 326 332 333 338 340 339 334 331 329 327 326 326 332 336 334
316 314 320 323 322 323 325 325 327 326 323 321 320 321 322 324 324 328 329 330 328 326 331 333 338 334 332 334 333 329 328 329 337 340 335 338 332 331 331 329 329 328 328 332 334
313 314 314 315 314 313 316 321 321 323 325 325 329 322 322 328 325 326 327 328 330 331 327 336 337 330 328 329 333 333 331 327 327 331 333 328 329 330 330 330 328 330 330 331 332
309 309 310 310 311 313 314 315 318 325 328 330 330 328 329 333 333 327 332 334 339 334 332 337 335 332 331 328 331 332 330 330 329 329 332 329 329 329 330 328 327 326 330 331 331
308 305 307 309 310 312 313 315 318 317 318 323 325 328 327 327 330 331 332 333 334 337 339 339 337 341 336 329 330 337 332 331 330 330 332 331 329 329 328 329 327 326 329 331 331
Wind_Speed
20 21 21 18 18 18 18 17 17 18 17 16 14 13 14 17 20 15 15 14 8 21 16 12 14 17 18 17 19 19 13 14 21 19 14 17 15 14 18 19 20 19 22 20 17
22 22 22 22 20 19 19 18 18 18 18 17 15 13 14 17 18 24 25 26 24 13 12 15 14 14 13 17 16 17 13 20 21 21 10 21 17 17 18 19 18 20 21 20 17
23 23 23 23 22 21 20 20 19 19 18 17 15 13 13 13 13 6 9 23 23 17 16 19 17 14 14 15 18 19 16 20 19 16 11 7 21 11 9 15 17 19 18 14 19
25 25 25 24 23 23 21 21 21 21 19 17 14 12 12 5 4 5 9 9 11 12 15 18 16 16 14 16 17 17 18 19 22 12 4 5 21 13 18 14 19 19 17 14 14
26 26 26 25 24 24 24 23 22 21 20 17 12 10 7 8 15 8 7 8 10 11 17 17 15 15 15 17 16 14 17 16 15 11 8 7 15 18 21 17 18 19 16 15 14
28 28 28 26 26 26 24 25 24 22 18 14 10 8 5 14 2 8 9 12 12 14 16 18 13 15 17 16 12 11 12 16 9 9 9 11 20 10 13 13 14 17 16 14 14
29 30 30 29 28 27 27 26 26 20 14 10 8 5 11 18 4 5 10 13 14 16 15 16 19 16 11 17 11 13 11 10 11 13 11 8 7 8 16 14 14 15 14 13 10
31 31 31 31 29 29 30 28 22 14 8 6 7 6 8 12 25 10 10 13 15 15 16 14 8 12 17 15 7 11 11 12 15 13 16 14 14 18 19 17 15 15 14 13 12
34 33 33 32 30 31 31 26 13 6 2 5 6 10 14 7 13 14 13 13 11 13 11 7 9 14 15 16 10 13 14 20 17 18 14 20 6 15 18 17 16 15 14 14 13
35 34 35 32 30 34 29 16 10 5 2 5 16 9 19 14 14 16 14 14 10 11 11 10 9 12 14 13 13 16 16 17 16 17 17 17 13 18 16 18 17 16 15 14 13
35 35 35 34 32 32 23 6 3 5 12 13 10 11 4 19 15 13 17 14 12 11 13 14 12 14 18 18 19 19 15 15 16 17 15 20 18 21 19 18 19 17 16 15 14
36 37 36 35 34 18 8 7 12 11 15 17 25 21 23 12 9 12 18 14 16 16 15 15 15 18 17 18 18 21 16 15 14 22 14 13 18 17 16 18 18 18 18 17 17
36 39 38 33 26 8 10 18 12 12 9 18 23 25 21 18 13 16 19 18 15 17 17 17 20 20 17 18 16 17 15 15 13 11 8 12 15 14 17 18 18 18 17 17 18
38 40 37 34 9 16 14 8 8 13 6 12 12 20 24 19 19 18 24 18 19 20 18 18 19 15 13 14 12 16 15 18 9 6 10 11 15 23 27 22 17 17 16 14 18
40 39 35 19 14 9 12 13 12 10 6 8 9 3 16 23 12 23 23 18 21 21 14 18 15 17 13 16 17 15 17 17 8 13 9 9 9 18 18 14 14 12 15 14 15
43 38 30 3 7 12 12 12 7 6 9 7 10 8 16 23 25 10 21 20 18 22 18 19 19 15 12 15 15 13 16 11 10 10 13 21 17 7 5 7 7 13 18 19 18
43 36 20 9 9 11 12 9 5 8 10 11 9 13 15 18 22 22 19 20 17 15 17 19 20 11 14 17 16 15 10 7 11 12 14 13 12 7 17 27 26 29 20 20 18
40 24 9 10 9 10 8 6 10 11 20 14 11 14 14 17 19 24 20 18 22 20 13 17 14 16 15 19 13 13 13 11 12 7 6 11 8 9 19 19 24 25 20 16 19
37 14 10 5 4 6 6 10 13 14 19 16 21 11 17 16 17 22 19 18 20 19 20 14 16 17 19 16 13 13 15 18 14 12 10 6 16 15 13 12 7 10 19 20 17
25 11 8 1 2 6 7 15 20 20 24 23 16 18 21 16 18 19 23 20 21 22 20 21 13 16 14 17 19 15 10 13 8 12 14 9 4 5 4 13 10 8 21 17 15
6 6 6 3 3 6 10 15 18 19 21 23 16 18 23 21 19 17 22 19 21 20 20 20 12 12 12 13 17 14 8 9 7 2 8 6 1 5 6 11 14 14 13 19 17
9 6 9 2 7 8 12 18 19 19 21 20 13 16 22 21 16 17 23 21 19 19 22 18 7 8 20 15 16 17 17 14 9 9 5 3 3 11 10 3 3 5 13 18 18
7 8 12 3 7 9 14 17 20 23 13 14 19 18 19 20 19 15 20 22 16 17 18 13 11 12 13 13 17 17 18 12 3 5 2 6 3 5 7 1 1 4 11 17 16
5 5 4 4 9 14 12 15 13 24 16 15 16 19 20 19 20 18 16 21 18 17 7 4 9 12 14 15 9 12 17 17 13 5 10 19 9 6 6 12 8 8 7 16 15
4 5 6 6 13 18 16 17 18 21 15 21 16 16 15 16 19 17 22 20 18 7 8 7 10 15 18 22 19 6 25 21 18 15 11 13 9 4 16 19 6 9 7 13 15
6 5 9 13 16 15 13 16 18 15 8 14 15 16 9 5 17 18 12 14 4 18 14 9 11 14 21 24 16 7 18 18 4 12 12 15 4 10 9 6 3 2 8 13 14
15 12 6 8 14 13 12 12 14 14 17 16 14 14 10 6 20 12 15 14 11 6 19 13 11 13 19 23 23 27 20 18 13 14 19 11 2 8 3 4 4 2 4 10 13
Wind_Direction
8 4 1 355 348 343 339 339 337 334 330 324 308 305 304 304 303 289 257 235 233 243 262 267 234 238 243 255 259 264 271 270 278 292 144 158 159 195 101 87 68 64 110 126 139
5 1 358 354 348 343 338 334 332 328 326 326 312 302 304 310 304 275 250 250 263 254 246 240 234 229 236 237 244 245 254 262 274 287 154 176 185 117 106 105 100 97 112 132 146
3 359 356 351 348 342 339 334 329 325 321 321 312 299 304 322 286 243 225 231 238 247 234 242 252 233 232 236 228 236 243 258 256 291 319 81 63 37 110 119 125 123 127 124 93
2 357 353 350 346 343 339 335 328 322 317 315 309 296 304 300 312 112 156 198 218 215 223 242 247 250 235 236 230 228 242 252 271 320 273 304 108 118 237 59 120 126 108 110 119
357 354 350 346 344 342 338 334 327 319 312 307 298 289 315 243 248 170 159 175 180 183 219 236 230 233 234 242 235 237 244 246 265 292 248 264 98 100 105 122 130 127 126 131 125
355 352 348 345 341 339 335 331 325 317 307 298 279 270 261 262 225 148 168 171 193 207 229 240 235 237 252 253 244 226 246 259 234 236 234 212 119 107 119 132 128 128 123 124 132
354 351 347 343 340 336 332 329 323 313 301 281 251 235 266 248 278 176 185 197 209 210 240 236 249 273 252 266 248 233 219 234 230 205 216 175 142 140 138 143 137 131 129 124 123
352 350 346 343 339 334 329 327 320 311 295 254 214 227 261 249 225 224 203 208 214 229 247 261 265 289 263 276 235 236 239 234 209 213 222 185 190 139 151 157 157 152 144 146 125
349 348 344 341 339 333 325 324 313 313 255 194 208 217 254 192 212 219 210 217 216 225 238 308 269 249 248 251 227 222 235 225 214 197 196 204 150 148 168 171 167 161 158 139 124
349 346 343 339 337 332 323 317 298 270 263 241 261 265 242 226 201 212 207 223 197 207 219 222 230 234 242 226 229 217 222 251 193 186 210 187 222 162 187 182 176 170 164 152 147
349 345 340 337 336 332 325 338 226 192 226 237 204 227 259 217 186 209 197 219 204 216 223 207 229 221 229 233 242 256 240 224 232 154 209 205 166 173 183 196 178 180 174 163 152
348 345 338 334 334 326 305 281 326 311 301 260 243 256 257 172 189 205 196 203 215 222 214 239 223 243 233 240 233 259 272 267 114 169 201 226 165 163 186 204 199 185 174 166 139
347 344 339 333 330 300 267 300 310 303 285 282 242 233 229 244 228 201 197 208 219 227 236 231 238 213 245 236 245 239 252 270 159 172 229 261 219 114 241 218 209 192 178 166 154
344 343 339 335 321 320 289 348 317 339 280 261 196 223 211 224 231 245 188 210 230 231 229 241 245 264 220 245 242 252 230 259 234 178 229 238 247 178 184 197 207 201 183 162 157
341 341 332 333 300 295 341 329 324 292 288 97 173 153 199 204 216 207 232 199 233 233 240 247 234 249 229 241 234 243 233 236 163 217 243 214 234 259 205 185 194 211 204 157 164
337 337 327 336 242 277 293 309 285 237 247 240 148 205 204 207 224 202 208 208 226 244 252 251 257 229 218 239 238 219 265 191 254 245 236 242 213 283 63 39 82 259 207 178 168
334 335 313 276 252 330 321 284 237 241 231 256 199 195 212 208 220 230 190 206 223 223 240 245 254 232 212 226 215 217 215 207 220 234 239 289 191 213 157 186 177 215 196 179 160
333 338 304 257 286 295 286 236 246 265 232 281 305 295 200 228 206 223 202 214 215 237 244 228 221 218 234 247 202 200 215 237 224 286 317 303 294 164 175 190 202 211 185 156 154
336 331 264 263 262 271 249 231 236 252 278 312 318 246 268 219 231 216 204 218 218 215 242 242 229 218 202 231 219 201 230 241 268 286 214 179 274 124 122 107 107 118 128 154 167
331 307 265 106 269 230 239 251 277 276 274 293 280 294 291 259 221 222 222 212 226 216 231 253 274 222 191 215 233 232 210 232 238 264 281 281 100 87 173 141 124 129 156 146 157
289 286 112 120 165 231 251 262 268 260 265 282 288 277 286 297 287 239 225 225 215 232 212 244 264 263 212 208 220 229 227 256 237 301 280 295 309 271 223 152 169 172 169 148 159
315 288 129 231 261 246 252 252 251 264 284 289 267 264 282 294 311 265 287 247 211 213 221 218 256 198 228 209 234 243 228 228 257 236 251 30 116 5 12 94 63 56 152 153 158
305 287 269 216 270 289 318 318 321 302 278 280 271 276 259 280 290 290 266 287 244 204 227 203 223 247 216 234 229 227 243 256 205 116 96 313 248 163 280 273 162 177 160 144 155
287 310 309 301 274 324 315 309 293 269 305 252 259 268 278 269 267 278 279 287 286 224 129 241 223 222 246 218 229 233 234 234 181 192 191 221 166 142 4 252 224 183 175 157 159
273 344 14 300 321 328 310 304 303 299 345 290 329 240 275 288 276 274 278 276 300 165 188 183 231 232 233 259 208 5 292 227 241 230 220 246 227 312 179 220 96 147 162 146 153
346 343 340 298 292 295 290 275 283 336 1 310 269 328 311 289 316 278 331 309 138 306 284 195 215 233 246 247 208 197 262 275 296 317 322 237 228 73 74 17 44 309 169 157 150
1 338 298 292 292 283 287 339 331 326 308 279 347 348 315 335 300 321 305 294 285 266 295 312 207 214 235 238 252 199 205 213 224 213 247 279 151 104 85 108 338 227 146 151 149